x

Smith Island, Wa (sisw1) Weather Station

9:00 - Sun 19th Feb 2017 All times are PST. -8 hours from GMT.

  • Wind
    36mph, 40mph gusts
  • Aire Temp 44°f
  • Sea Pressure 994.2mb
  • Smith Island, Wa
  • Smith Island, Wa

More Historic Weather Station data

Upgrade to MSW Pro to gain access to the past 30 days of data for over 8000 Wavebouys and Weather Stations around the globe.

Join Pro

Comparision Forecast

View Surf forecast
   
dom 02/19 9:00 36 40 mph 994.2mb 44f
8:00 20 21 mph 994.7mb 43f
7:00 22 26 mph 994mb 42f
6:00 21 23 mph 994.2mb 43f
5:00 25 29 mph 994mb 44f
4:00 28 30 mph 994.2mb 44f
3:00 18 22 mph 994.7mb 44f
2:00 22 24 mph 995mb 44f
1:00 22 25 mph 995.1mb 44f
12:00 14 15 mph 995.4mb 44f
sáb 02/18 11:00 11 13 mph 995.7mb 44f
10:00 11 14 mph 995.8mb 44f
9:00 11 13 mph 995.9mb 43f
8:00 10 11 mph 995.7mb 43f
7:00 9
mph
996mb 43f
6:00 7 8 mph 995.8mb 43f
5:00 5 6 mph 995.7mb 43f
4:00 3
mph
995.9mb 43f
3:00 2
mph
995.7mb 43f
2:00 2
mph
995.7mb 43f
1:00 2 3 mph 995.8mb 43f
12:00 5
mph
996.4mb 43f
11:00 5 6 mph 996.6mb 43f
10:00 6 7 mph 997mb 42f
9:00 3 5 mph 997.4mb 43f
8:00 5 6 mph 997.7mb 43f
7:00 6
mph
997.9mb 43f
6:00 7 9 mph 998mb 43f
5:00 9 10 mph 998.1mb 43f
4:00 7 9 mph 998.3mb 44f
3:00 9 11 mph 998.4mb 44f
2:00 9 10 mph 998.7mb 44f
1:00 10 13 mph 999.2mb 44f
12:00 15 16 mph 999.5mb 44f
vie 02/17 11:00 13 14 mph 1000.2mb 45f
10:00 10 11 mph 1000.5mb 44f
9:00 11 14 mph 1000.8mb 44f
8:00 10 14 mph 1001.2mb 45f
7:00 11 13 mph 1001.7mb 46f
6:00 11 14 mph 1001.8mb 46f
5:00 11 13 mph 1002.1mb 46f
4:00 7 11 mph 1002.7mb 47f
3:00 10 14 mph 1003.1mb 46f
2:00 7 8 mph 1003.8mb 47f
1:00 2
mph
1005mb 46f
12:00 1 2 mph 1005.8mb 47f
11:00 6 7 mph 1006.2mb 49f
10:00 9
mph
1006.5mb 47f
9:00 10
mph
1006.8mb 45f
8:00 9 10 mph 1007mb 45f
7:00 9 10 mph 1007mb 45f
6:00 10 11 mph 1007mb 45f
5:00 9
mph
1007.1mb 44f
4:00 6 7 mph 1007.4mb 45f
3:00 8
mph
1007.4mb 45f
2:00 5 6 mph 1007.2mb 46f
1:00 3 5 mph 1006.8mb 46f
12:00 6 8 mph 1006.2mb 46f
jue 02/16 11:00 6 7 mph 1005.5mb 46f
10:00 9 11 mph 1004.9mb 46f
9:00 6 7 mph 1003.8mb 46f
8:00 5 6 mph 1003.4mb 46f
7:00 10 14 mph 1002.2mb 46f
6:00 17 18 mph 1001.5mb 47f
5:00 9 13 mph 1001mb 47f
4:00 6 7 mph 1000.3mb 47f
3:00 7 8 mph 999.4mb 49f
2:00 5 6 mph 998.9mb 50f
1:00 5 6 mph 998.5mb 51f
12:00 5 6 mph 998.2mb 49f
11:00 3 5 mph 997.6mb 49f
10:00 2 5 mph 997.1mb 48f
9:00 6 7 mph 996.2mb 48f
8:00 10 11 mph 995.4mb 48f
7:00 9 10 mph 994.5mb 48f
6:00 10 11 mph 993.7mb 49f
5:00 5 6 mph 993.2mb 51f
4:00 2 3 mph 993mb 50f
3:00 25 28 mph 992mb 50f
2:00 25 28 mph 991.9mb 51f
1:00 37 40 mph 991.5mb 52f
12:00 39 45 mph 991.7mb 52f
mié 02/15 11:00 37 41 mph 992mb 53f
10:00 40 45 mph 992.7mb 52f
9:00 34 39 mph 993.2mb 53f
8:00 39 46 mph 993.8mb 53f
7:00 40 45 mph 994mb 54f